Погода в Горьковском

Россия / Алтайский край     52°04′32″N   82°08′05″E
темп.,
°C
ветер,
м/с
пор.,
м/с
влажн.,
%
обл.,
%
осадки,
мм/ч
давл.,
гПа
погр.,
м
26 февраля, пт
пт2601:00−21юз91775100 0.1 10271278
04:00−22юз10168499 0.0 10291164
07:00−22юз101590100 0.1 10331060
10:00−22юз91488100 0.1 1035751
13:00−21юз91484100 0.1 10361176
16:00−20юз91383100 0.0 10371141
19:00−21юз71286100 0.0 1038869
22:00−22юз51388100 0.0 1039471
27 февраля, сб
сб2701:00−25юз41190100 0.0 1039218
04:00−26юз349285 0.0 104077
07:00−26зюз339584 0.0 104030
10:00−25юз379445 0.0 1040179
13:00−21юз478857 0.0 1039350
16:00−20юз46858 0.0 1038398
19:00−24зюз22904 0.0 103920
22:00−26ю22870 0.0 104019
28 февраля, вс
вс2801:00−27ю22880 0.0 103919
04:00−26ююв129637 0.0 103920
07:00−24юв229350 0.0 103820
10:00−20юв238859 0.0 103742
13:00−9ю5127577 0.0 1034898
16:00−7ююз71473100 0.0 1031841
19:00−8ююз61775100 0.0 1029819
22:00−7ююз81878100 0.0 1027895
1 марта, пн
пн101:00−7ююз112086100 0.7 1024923
04:00−6ююз132284100 0.3 1022944
07:00−6ююз132386100 0.4 1020882
10:00−5ююз142389100 0.5 1019863
13:00−4ююз132192100 1.3 1019888
16:00−3ююз121985100 0.3 1019824
19:00−3ююз112086100 0.3 1019701
22:00−3ююз112089100 0.1 1019687
2 марта, вт
вт201:00−3ююз112092100 0.3 1018710
04:00−3ююз111994100 1.3 1017740
07:00−4ююз101894100 2.8 1017705
10:00−3ююз111893100 1.6 1015765
13:00−3ююз101693100 2.2 1014786
16:00−2ююз101693100 0.8 1013867
19:00−1юз71397100 2.4 1012751
22:00−1юз61197100 1.3 1014540